Home   Weather   Edinburgh   Past weeks
Flag for United Kingdom

Past Weather in Edinburgh, Scotland, United Kingdom — Yesterday and Last 2 Weeks

Now
48 °F

Partly sunny.


Feels Like: 45 °F
Forecast: 52 / 42 °F
Wind: 7 mph from West

Location: Edinburgh Airport

Current Time: May 27, 2019 at 6:53:38 am

Latest Report: May 27, 2019 at 6:20 am


Visibility: N/A

Pressure: 29.65 "Hg

Humidity: 87%

Dew Point: 45 °F

Location of EdinburghLocation

Past Weather in Edinburgh — Graph

°F

Edinburgh Temperature Yesterday

Maximum temperature yesterday: 61 °F (at 12:20 pm)
Minimum temperature yesterday: 52 °F (at 6:50 am)
Average temperature yesterday: 56 °F

High & Low Weather Summary for the Past Weeks

 TemperatureHumidityPressure
High72 °F (May 14, 3:50 pm)100% (May 12, 6:50 am)30.66 "Hg (May 12, 6:50 am)
Low32 °F (May 12, 5:20 am)38% (May 13, 5:20 pm)29.56 "Hg (May 27, 1:50 am)
Average53 °F80%30.07 "Hg
* Reported May 12 5:20 am — May 27 5:20 am, Edinburgh. Weather by CustomWeather, © 2019

Note: Actual official high and low records may vary slightly from our data, if they occured in-between our weather recording intervals... More about our weather records

Advertising

Edinburgh Weather History for the Previous 24 Hours

Scroll right to see more
 ConditionsComfort  
Time TempWeatherWind HumidityBarometerVisibility
5:20 am
Mon, May 27
48 °FPartly sunny.6 mph82%29.65 "HgN/A
4:50 am48 °FPartly sunny.9 mph82%29.62 "HgN/A
4:20 am48 °FPassing clouds.10 mph82%29.62 "HgN/A
3:50 am50 °FMostly cloudy.12 mph82%29.59 "HgN/A
3:20 am50 °FLight rain. Passing clouds.14 mph94%29.59 "Hg5 mi
2:50 am52 °FOvercast.13 mph88%29.56 "HgN/A
2:20 am52 °FOvercast.16 mph88%29.56 "HgN/A
1:50 am52 °FOvercast.17 mph82%29.56 "HgN/A
1:20 am52 °FOvercast.20 mph82%29.59 "HgN/A
12:50 am52 °FPassing clouds.16 mph82%29.59 "HgN/A
12:20 am52 °FPassing clouds.20 mph77%29.59 "HgN/A
11:50 pm
Sun, May 26
52 °FPassing clouds.21 mph77%29.59 "HgN/A
11:20 pm52 °FPassing clouds.20 mph82%29.62 "HgN/A
10:50 pm52 °FPassing clouds.22 mph82%29.62 "HgN/A
10:20 pm52 °FPassing clouds.24 mph82%29.62 "HgN/A
9:50 pm52 °FPassing clouds.21 mph82%29.62 "HgN/A
9:20 pm52 °FScattered clouds.20 mph82%29.62 "HgN/A
8:50 pm54 °FPassing clouds.17 mph72%29.62 "HgN/A
8:20 pm54 °FPartly sunny.21 mph72%29.62 "HgN/A
7:50 pm54 °FScattered clouds.22 mph72%29.62 "HgN/A
6:50 pm55 °FBroken clouds.22 mph67%29.65 "HgN/A
6:20 pm55 °FScattered clouds.18 mph67%29.68 "HgN/A
5:50 pm57 °FScattered clouds.16 mph67%29.68 "HgN/A
4:50 pm57 °FScattered clouds.17 mph67%29.68 "HgN/A
4:20 pm57 °FPartly sunny.17 mph72%29.68 "HgN/A
3:50 pm55 °FPartly sunny.21 mph77%29.68 "HgN/A
3:20 pm57 °FScattered showers. Scattered clouds.18 mph77%29.68 "HgN/A
2:50 pm57 °FRain. Scattered clouds.17 mph82%29.65 "HgN/A
2:20 pm59 °FScattered clouds.20 mph77%29.65 "HgN/A
1:50 pm61 °FScattered clouds.21 mph77%29.65 "HgN/A
1:20 pm59 °FScattered clouds.20 mph77%29.65 "HgN/A
12:50 pm59 °FPartly sunny.17 mph77%29.65 "HgN/A
12:20 pm61 °FPartly sunny.20 mph77%29.65 "HgN/A
11:50 am59 °FPartly sunny.18 mph88%29.65 "HgN/A
11:20 am59 °FScattered showers. Partly sunny.15 mph88%29.65 "HgN/A
10:50 am59 °FPartly sunny.14 mph94%29.65 "HgN/A
10:20 am57 °FLight rain. Mostly cloudy.13 mph100%29.65 "Hg6 mi
9:50 am57 °FDrizzle. Mostly cloudy.13 mph94%29.65 "Hg4 mi
9:20 am57 °FLight rain. Mostly cloudy.13 mph94%29.65 "Hg6 mi
8:50 am57 °FLight rain. Mostly cloudy.12 mph94%29.65 "Hg5 mi
8:20 am57 °FScattered showers. Mostly cloudy.12 mph100%29.65 "Hg4 mi
7:50 am54 °FDrizzle. Mostly cloudy.2 mph100%29.65 "Hg4 mi
7:20 am52 °FLight rain. Mostly cloudy.6 mph100%29.65 "Hg4 mi
6:50 am52 °FDrizzle. Fog.6 mph100%29.68 "Hg2 mi
6:20 am55 °FLight rain. Broken clouds.3 mph100%29.68 "HgN/A
Weather by CustomWeather, © 2019

See weather overview